Weather in Novoyamskaya Sloboda

Russia / Republic of Mordovia     54°44′20″N   43°43′16″E
temp.,
°C
wind,
m/s
gust,
m/s
humid.,
%
clouds,
%
prec.,
mm/h
press.,
hPa
HPBL,
m
18 may, tue
tue1800:00+16ese377614 0.0 1015108
03:00+15ese387561 0.0 1015125
06:00+17e37716 0.0 1014128
09:00+24se49518 0.0 1014431
12:00+28ese58415 0.0 10131077
15:00+28ese58425 0.0 10131190
18:00+25ese511615 0.0 1012422
21:00+20e513700 0.0 1011228
19 may, wed
wed1900:00+19e5146133 0.0 1011281
03:00+16ese312612 0.0 1011201
06:00+17e5156272 0.0 1011329
09:00+23ese6145876 0.0 1011654
12:00+27se612475 0.0 10111479
15:00+27ese712505 0.0 10101826
18:00+24ese613575 0.0 1010734
21:00+21e616705 0.0 1010581
20 may, thu
thu2000:00+20ese718610 0.0 1009608
03:00+15ese4118353 0.4 1010256
06:00+17e23872 0.1 1009204
09:00+19sse457272 0.1 1010968
12:00+20s5665100 0.1 10101221
15:00+21s585732 0.2 10091660
18:00+19ssw3566100 0.0 1009658
21:00+15ssw3782100 0.1 1009162
21 may, fri
fri2100:00+13s2691100 0.0 1009151
03:00+12ssw389799 0.0 1009241
06:00+13ssw4118826 0.0 1009497
09:00+14ssw5983100 0.1 1011702
12:00+16sw61074100 0.6 10111287
15:00+16wsw6107087 0.9 10131235
18:00+15wsw598361 0.5 1014818
21:00+12wsw3693100 0.8 1017144
22 may, sat
sat2200:00+13w2584100 0.0 1018104
03:00+11sw2288100 0.0 101920
06:00+13sse1185100 0.0 102096
09:00+15sse2376100 0.1 1020457
12:00+15sse2377100 0.4 1021585
15:00+14se4488100 1.3 1020450
18:00+13ese3593100 0.6 1018306
21:00+12e3698100 1.4 1019298